Total_Precipitation_Accumulation
1.51 1.44 2.24 3.31 3.82 3.00 2.62 2.39 1.94 1.76 1.40 1.12 0.92 0.92 1.27 1.61 1.76 2.01 2.11 2.17 1.40 1.23 1.46 1.99 2.52 2.33 2.12 1.98 1.88 1.73 1.50 1.19 1.03 1.02 1.01 0.91 0.84 0.82 0.80 0.78 0.72 0.70 0.68 0.69 0.81 0.97 0.98 1.00 1.03
1.16 1.78 2.85 3.84 3.39 2.58 2.61 2.32 1.98 1.66 1.22 0.89 0.73 0.72 0.81 0.76 0.67 1.12 2.20 2.42 1.44 1.16 1.34 1.60 2.29 2.18 2.08 1.98 1.77 1.75 1.52 1.18 1.07 1.04 0.98 0.85 0.79 0.83 0.90 0.90 0.78 0.72 0.68 0.65 0.70 0.92 0.95 0.93 0.98
1.62 2.51 3.45 3.62 2.66 2.41 2.59 2.32 1.91 1.27 0.91 0.81 0.73 0.64 0.72 0.89 0.92 1.47 2.19 1.82 1.34 1.18 1.36 1.93 2.33 2.01 1.92 1.78 1.65 1.70 1.58 1.33 1.18 1.06 0.97 0.90 0.85 0.82 0.89 0.85 0.82 0.80 0.76 0.78 0.85 1.01 0.98 0.90 0.88
2.08 3.02 3.39 3.03 2.40 2.08 2.06 2.03 1.70 1.24 0.94 0.65 0.62 0.68 0.68 0.99 1.11 1.46 1.64 1.31 1.16 1.18 1.34 1.79 2.01 1.80 1.72 1.65 1.56 1.52 1.58 1.56 1.32 1.12 1.03 1.00 0.94 0.94 0.95 0.94 0.86 0.90 0.91 0.95 0.97 0.99 0.99 0.97 0.93
2.52 3.10 3.08 2.83 2.46 2.12 1.75 1.63 1.53 1.34 1.08 0.76 0.73 0.84 1.06 1.55 1.47 1.42 1.40 1.17 1.02 1.03 1.15 1.48 1.75 1.61 1.55 1.51 1.49 1.41 1.51 1.59 1.43 1.14 1.13 1.13 1.07 1.06 1.06 1.06 0.96 1.00 0.97 0.97 1.01 0.94 0.98 0.99 0.97
2.96 2.90 2.93 2.85 2.68 2.32 1.89 1.45 1.32 1.24 0.98 0.79 0.83 0.95 1.42 1.88 1.82 1.74 1.47 1.45 1.22 1.08 1.05 1.20 1.49 1.51 1.41 1.44 1.54 1.43 1.41 1.50 1.41 1.23 1.19 1.11 1.10 1.13 1.15 1.07 1.03 1.02 1.02 1.05 1.07 1.03 1.00 0.95 0.96
2.83 2.71 2.71 2.35 2.45 2.68 2.04 1.30 1.33 1.28 1.16 0.95 0.74 0.94 1.39 1.71 1.62 1.59 1.46 1.46 1.47 1.40 1.28 1.13 1.14 1.25 1.29 1.37 1.49 1.45 1.38 1.35 1.28 1.29 1.25 1.22 1.19 1.13 1.07 1.03 1.04 1.04 1.05 1.10 1.13 1.06 1.02 1.00 1.02
2.33 2.38 2.31 2.28 2.45 2.59 1.84 1.14 1.03 1.17 1.12 0.76 0.80 1.03 1.28 1.30 1.26 1.29 1.38 1.55 1.53 1.47 1.34 1.13 1.01 1.02 1.11 1.09 1.24 1.46 1.49 1.38 1.26 1.27 1.28 1.27 1.20 1.09 1.02 0.94 1.00 1.08 1.09 1.18 1.20 1.12 1.10 1.10 1.05
1.94 2.35 2.58 2.63 2.52 2.20 1.47 1.18 0.96 0.86 0.85 0.78 0.77 0.83 0.94 0.87 0.99 1.12 1.12 1.16 1.27 1.22 1.15 1.07 1.01 1.04 1.13 1.17 1.16 1.41 1.51 1.39 1.18 1.09 1.16 1.15 0.97 0.95 0.97 0.94 1.15 1.15 1.24 1.31 1.31 1.26 1.22 1.12 1.08
1.97 2.31 2.38 1.96 1.57 1.48 1.27 1.13 1.03 1.06 1.11 0.92 0.84 0.86 0.90 0.89 0.94 1.00 1.00 0.99 1.01 0.95 0.86 0.82 0.83 0.93 1.03 1.09 1.42 1.64 1.45 1.35 1.06 1.06 0.97 0.99 1.05 1.13 0.96 1.00 1.32 1.33 1.38 1.38 1.40 1.37 1.25 1.02 0.86
1.64 1.97 1.69 1.46 1.20 1.00 1.02 1.03 0.84 0.99 1.17 0.97 0.89 0.86 0.91 0.95 0.94 0.97 0.95 0.84 0.79 0.72 0.65 0.60 0.56 0.59 0.66 0.86 1.21 1.49 1.62 1.60 1.51 1.29 1.06 1.04 0.91 0.81 0.77 0.82 0.99 1.09 1.21 1.20 1.21 1.19 1.02 0.91 0.88
1.58 1.53 1.35 1.34 1.00 0.96 0.95 0.89 0.84 0.85 0.93 0.84 0.91 0.83 0.83 0.89 0.90 0.87 0.87 0.82 0.71 0.68 0.64 0.55 0.53 0.48 0.50 0.57 0.75 0.94 1.11 1.20 1.22 1.10 0.96 1.05 0.93 0.82 0.83 0.83 0.84 0.87 1.01 1.16 1.17 1.14 1.01 0.90 0.81
1.64 1.60 1.29 1.06 0.95 0.89 0.82 0.78 0.79 0.84 0.79 0.72 0.84 0.90 0.92 0.91 0.89 0.94 0.96 0.92 0.80 0.80 0.80 0.69 0.57 0.52 0.50 0.54 0.60 0.66 0.83 0.92 0.94 0.97 0.90 0.95 0.97 0.95 0.91 0.83 0.85 0.79 0.90 1.07 1.17 1.13 1.02 1.00 0.94
1.46 1.44 1.46 1.27 1.05 0.93 0.92 0.79 0.68 0.84 0.82 0.79 0.88 0.95 0.93 0.96 0.87 0.85 0.89 0.95 0.89 0.86 0.84 0.81 0.68 0.63 0.59 0.54 0.56 0.59 0.68 0.77 0.80 0.78 0.77 0.87 0.97 0.98 0.96 0.93 0.96 0.93 0.97 1.12 1.14 1.06 1.10 1.16 1.05
1.32 1.56 1.54 1.37 1.12 1.01 1.01 1.07 0.80 0.75 0.82 0.85 0.95 0.89 0.85 0.89 0.85 0.82 0.80 0.80 0.85 0.84 0.80 0.79 0.77 0.76 0.73 0.67 0.63 0.62 0.68 0.77 0.78 0.75 0.70 0.71 0.80 0.86 0.90 0.94 0.95 0.99 1.09 1.16 1.21 1.06 1.10 1.08 0.99
1.65 1.96 2.03 1.48 1.24 1.07 1.19 1.33 0.88 0.80 0.82 0.76 0.78 0.75 0.75 0.79 0.76 0.74 0.78 0.73 0.73 0.70 0.69 0.73 0.72 0.73 0.77 0.76 0.76 0.79 0.77 0.83 0.79 0.77 0.71 0.67 0.72 0.80 0.94 0.97 0.94 0.97 1.12 1.24 1.30 1.22 1.20 1.16 1.11
1.83 1.87 1.73 1.43 1.16 1.07 1.08 1.06 0.81 0.81 0.83 0.69 0.67 0.66 0.65 0.63 0.61 0.59 0.65 0.70 0.67 0.61 0.62 0.63 0.65 0.64 0.71 0.77 0.79 0.90 0.91 0.91 0.87 0.85 0.77 0.74 0.80 0.88 1.07 1.19 1.19 1.18 1.21 1.22 1.19 1.27 1.28 1.27 1.27
1.52 1.41 1.28 1.19 1.00 0.94 0.91 0.77 0.65 0.68 0.70 0.64 0.56 0.53 0.53 0.52 0.48 0.48 0.50 0.54 0.57 0.57 0.56 0.55 0.60 0.61 0.65 0.77 0.87 1.02 1.14 1.09 1.10 1.03 0.92 0.93 1.08 1.23 1.39 1.39 1.47 1.55 1.45 1.42 1.38 1.41 1.37 1.30 1.35
1.01 1.08 1.09 1.00 0.78 0.78 0.75 0.62 0.58 0.59 0.63 0.61 0.54 0.46 0.43 0.44 0.41 0.40 0.41 0.45 0.46 0.49 0.52 0.51 0.51 0.59 0.63 0.67 0.80 1.01 1.28 1.39 1.47 1.41 1.23 1.18 1.30 1.55 1.78 1.74 1.81 1.88 1.79 1.77 1.79 2.00 1.95 1.67 1.43
0.98 1.14 1.11 1.00 0.71 0.65 0.64 0.53 0.46 0.48 0.56 0.52 0.49 0.45 0.38 0.37 0.32 0.30 0.31 0.34 0.36 0.38 0.45 0.47 0.47 0.55 0.60 0.65 0.81 0.97 1.11 1.11 1.28 1.43 1.41 1.32 1.31 1.47 1.61 1.87 1.99 1.96 2.04 2.17 2.17 2.54 2.67 2.21 1.77
0.96 0.97 0.95 0.93 0.75 0.63 0.57 0.58 0.43 0.41 0.45 0.42 0.39 0.38 0.33 0.31 0.30 0.30 0.29 0.28 0.29 0.30 0.31 0.33 0.37 0.45 0.57 0.70 0.91 1.11 1.29 1.38 1.44 1.38 1.46 1.47 1.39 1.44 1.56 1.70 1.86 1.89 1.99 2.12 2.26 2.60 3.11 2.88 2.27
0.88 0.63 0.58 0.64 0.80 0.81 0.65 0.78 0.51 0.44 0.48 0.43 0.37 0.32 0.30 0.29 0.29 0.35 0.31 0.34 0.31 0.27 0.25 0.26 0.34 0.48 0.67 0.88 1.10 1.33 1.53 1.57 1.46 1.52 1.55 1.44 1.36 1.33 1.41 1.54 1.68 1.81 1.85 1.99 2.10 2.23 2.76 3.14 2.83
0.59 0.49 0.46 0.53 0.69 0.66 0.49 0.59 0.51 0.43 0.53 0.48 0.41 0.37 0.32 0.29 0.29 0.31 0.30 0.33 0.32 0.30 0.31 0.36 0.54 0.78 1.03 1.25 1.50 1.76 1.74 1.63 1.53 1.54 1.52 1.46 1.47 1.43 1.42 1.57 1.64 1.66 1.73 1.83 2.17 2.44 2.72 2.95 2.93
0.40 0.46 0.51 0.57 0.71 0.70 0.43 0.49 0.54 0.42 0.45 0.48 0.46 0.39 0.32 0.27 0.32 0.39 0.45 0.53 0.56 0.58 0.72 0.90 1.16 1.34 1.45 1.56 1.71 1.82 1.77 1.77 1.71 1.54 1.45 1.43 1.49 1.55 1.59 1.63 1.64 1.61 1.65 1.76 1.99 2.28 2.49 2.82 3.01
0.38 0.63 0.89 0.92 0.92 0.68 0.36 0.52 0.58 0.41 0.35 0.35 0.37 0.32 0.27 0.31 0.40 0.53 0.69 0.82 0.92 1.06 1.19 1.34 1.51 1.65 1.60 1.58 1.63 1.67 1.66 1.63 1.61 1.55 1.47 1.41 1.43 1.47 1.49 1.58 1.70 1.76 1.80 1.92 2.10 2.24 2.16 2.37 2.76
0.38 0.56 0.94 1.07 0.89 0.64 0.48 0.70 0.65 0.48 0.36 0.27 0.21 0.21 0.31 0.45 0.58 0.69 0.77 0.89 1.05 1.20 1.26 1.27 1.38 1.48 1.45 1.43 1.40 1.38 1.45 1.46 1.41 1.32 1.30 1.34 1.43 1.42 1.35 1.39 1.49 1.61 1.78 1.84 1.89 1.92 1.88 2.00 2.25
0.33 0.37 0.43 0.66 0.55 0.55 0.62 0.79 0.68 0.44 0.36 0.30 0.25 0.29 0.44 0.65 0.86 1.01 1.12 1.22 1.26 1.30 1.37 1.29 1.28 1.34 1.35 1.29 1.21 1.20 1.25 1.31 1.31 1.24 1.24 1.23 1.24 1.16 1.08 1.08 1.13 1.22 1.29 1.37 1.52 1.62 1.74 1.77 1.90
0.27 0.37 0.49 0.76 0.87 0.88 0.85 0.88 0.77 0.57 0.48 0.49 0.56 0.67 0.72 0.83 1.10 1.39 1.63 1.80 1.63 1.37 1.28 1.26 1.18 1.19 1.28 1.27 1.19 1.13 1.20 1.20 1.19 1.22 1.19 1.18 1.18 1.08 1.00 0.95 0.92 0.91 0.88 0.92 1.11 1.32 1.45 1.53 1.67
0.29 0.42 0.54 0.71 0.83 1.08 1.28 1.27 0.99 0.98 0.96 1.00 1.09 1.13 1.14 1.24 1.23 1.39 1.59 1.77 1.68 1.37 1.14 1.17 1.21 1.19 1.19 1.18 1.17 1.15 1.11 1.01 1.00 1.05 1.05 1.03 1.03 1.07 1.05 0.95 0.88 0.96 0.97 0.94 1.00 1.07 1.14 1.20 1.33
0.40 0.52 0.68 0.97 0.90 0.90 1.17 1.29 1.04 1.03 1.04 1.10 1.27 1.33 1.32 1.23 1.15 1.13 1.19 1.26 1.29 1.14 0.96 0.93 1.09 1.16 1.13 1.10 1.11 1.09 0.98 0.92 0.89 0.87 0.83 0.73 0.70 0.73 0.82 0.91 0.85 0.83 0.87 0.90 0.95 0.98 1.02 1.05 1.14